| time (UTC) | temp C | wind direction | speed KPH | gust KPH | rain 1hr cm | rain 24hr cm | rain mn cm | humidity % | barometer mb |
| 20260504013503 | 16 | 246 | 0.0 | 1.6 | 0.00 | 0.00 | 0.00 | 59 | 1009.1 |
| 20260504013003 | 16 | 0 | 0.0 | 0.0 | 0.00 | 0.00 | 0.00 | 58 | 1009.1 |
| 20260504012503 | 16 | 0 | 0.0 | 0.0 | 0.00 | 0.00 | 0.00 | 57 | 1009.0 |
| 20260504012003 | 16 | 91 | 0.0 | 1.6 | 0.00 | 0.00 | 0.00 | 57 | 1009.0 |
| 20260504011503 | 16 | 92 | 0.0 | 3.2 | 0.00 | 0.00 | 0.00 | 57 | 1009.0 |
| 20260504011003 | 16 | 92 | 0.0 | 3.2 | 0.00 | 0.00 | 0.00 | 57 | 1009.0 |
| 20260504010503 | 16 | 140 | 0.0 | 1.6 | 0.00 | 0.00 | 0.00 | 57 | 1009.1 |
| 20260504010218 | 16 | 233 | 0.0 | 3.2 | 0.00 | 0.00 | 0.00 | 57 | 1009.0 |
| 20260504005717 | 17 | 217 | 0.0 | 6.4 | 0.00 | 0.00 | 0.00 | 57 | 1009.0 |
| 20260504005004 | 17 | 233 | 0.0 | 6.4 | 0.00 | 0.00 | 0.00 | 57 | 1009.1 |
| 20260504004503 | 17 | 182 | 0.0 | 4.8 | 0.00 | 0.00 | 0.00 | 56 | 1009.1 |
| 20260504004003 | 17 | 175 | 0.0 | 4.8 | 0.00 | 0.00 | 0.00 | 56 | 1009.1 |
| 20260504003503 | 17 | 139 | 0.0 | 3.2 | 0.00 | 0.00 | 0.00 | 56 | 1009.1 |
| 20260504003218 | 17 | 135 | 0.0 | 4.8 | 0.00 | 0.00 | 0.00 | 56 | 1009.2 |
| 20260504002503 | 17 | 209 | 0.0 | 8.0 | 0.00 | 0.00 | 0.00 | 57 | 1009.1 |
| 20260504002003 | 17 | 186 | 1.6 | 8.0 | 0.00 | 0.00 | 0.00 | 55 | 1009.0 |
| 20260504001503 | 17 | 192 | 1.6 | 6.4 | 0.00 | 0.00 | 0.00 | 56 | 1009.1 |
| 20260504001003 | 17 | 163 | 1.6 | 6.4 | 0.00 | 0.00 | 0.00 | 55 | 1009.0 |
| 20260504000503 | 17 | 164 | 1.6 | 6.4 | 0.00 | 0.00 | 0.00 | 56 | 1008.9 |
| 20260504000003 | 17 | 217 | 1.6 | 6.4 | 0.00 | 0.00 | 0.00 | 56 | 1009.2 |
| 20260503235717 | 17 | 220 | 1.6 | 6.4 | 0.00 | 0.00 | 0.00 | 55 | 1009.1 |
| 20260503235003 | 17 | 165 | 1.6 | 4.8 | 0.00 | 0.00 | 0.00 | 56 | 1009.4 |
| 20260503234717 | 17 | 193 | 1.6 | 4.8 | 0.00 | 0.00 | 0.00 | 56 | 1009.3 |
| 20260503234003 | 17 | 221 | 0.0 | 3.2 | 0.00 | 0.00 | 0.00 | 56 | 1009.5 |
| 20260503233503 | 17 | 213 | 0.0 | 1.6 | 0.00 | 0.00 | 0.00 | 55 | 1009.7 |
| 20260503233003 | 17 | 169 | 0.0 | 1.6 | 0.00 | 0.00 | 0.00 | 55 | 1010.0 |
| 20260503232503 | 17 | 137 | 0.0 | 3.2 | 0.00 | 0.00 | 0.00 | 55 | 1010.0 |
| 20260503232217 | 17 | 113 | 0.0 | 6.4 | 0.00 | 0.00 | 0.00 | 55 | 1010.2 |
| 20260503231718 | 17 | 120 | 0.0 | 6.4 | 0.00 | 0.00 | 0.00 | 55 | 1010.0 |
| 20260503231003 | 17 | 189 | 1.6 | 6.4 | 0.00 | 0.00 | 0.00 | 54 | 1010.0 |
| 20260503230716 | 17 | 224 | 1.6 | 6.4 | 0.00 | 0.00 | 0.00 | 53 | 1009.9 |
| 20260503230003 | 17 | 193 | 0.0 | 6.4 | 0.00 | 0.00 | 0.00 | 53 | 1010.2 |
| 20260503225503 | 17 | 170 | 1.6 | 3.2 | 0.00 | 0.00 | 0.00 | 53 | 1010.4 |
| 20260503225003 | 17 | 212 | 1.6 | 8.0 | 0.00 | 0.00 | 0.00 | 53 | 1010.6 |
| 20260503224503 | 17 | 220 | 1.6 | 8.0 | 0.00 | 0.00 | 0.00 | 53 | 1010.6 |
| 20260503224217 | 17 | 223 | 1.6 | 4.8 | 0.00 | 0.00 | 0.00 | 53 | 1010.5 |
| 20260503223503 | 17 | 218 | 1.6 | 12.9 | 0.00 | 0.00 | 0.00 | 53 | 1010.5 |
| 20260503223217 | 17 | 210 | 1.6 | 12.9 | 0.00 | 0.00 | 0.00 | 53 | 1010.5 |
| 20260503222503 | 17 | 234 | 1.6 | 9.7 | 0.00 | 0.00 | 0.00 | 52 | 1010.6 |
| 20260503222003 | 17 | 219 | 0.0 | 6.4 | 0.00 | 0.00 | 0.00 | 53 | 1010.5 |
| 20260503221503 | 17 | 171 | 0.0 | 4.8 | 0.00 | 0.00 | 0.00 | 54 | 1010.5 |
| 20260503221003 | 17 | 158 | 1.6 | 8.0 | 0.00 | 0.00 | 0.00 | 54 | 1010.4 |
| 20260503220503 | 17 | 166 | 1.6 | 8.0 | 0.00 | 0.00 | 0.00 | 53 | 1010.2 |
| 20260503220003 | 17 | 185 | 1.6 | 11.3 | 0.00 | 0.00 | 0.00 | 53 | 1010.1 |
| 20260503215503 | 17 | 199 | 1.6 | 11.3 | 0.00 | 0.00 | 0.00 | 53 | 1010.0 |
| 20260503215003 | 17 | 193 | 1.6 | 6.4 | 0.00 | 0.00 | 0.00 | 55 | 1010.2 |
| 20260503214503 | 17 | 234 | 1.6 | 6.4 | 0.00 | 0.00 | 0.00 | 54 | 1010.3 |
| 20260503214217 | 17 | 247 | 1.6 | 4.8 | 0.00 | 0.00 | 0.00 | 53 | 1010.5 |
| 20260503213503 | 17 | 174 | 1.6 | 12.9 | 0.00 | 0.00 | 0.00 | 53 | 1010.7 |
| 20260503213003 | 17 | 217 | 1.6 | 12.9 | 0.00 | 0.00 | 0.00 | 52 | 1010.6 |
| 20260503212503 | 17 | 196 | 1.6 | 12.9 | 0.00 | 0.00 | 0.00 | 51 | 1010.6 |
| 20260503212003 | 17 | 195 | 3.2 | 8.0 | 0.00 | 0.00 | 0.00 | 52 | 1010.8 |
| 20260503211503 | 17 | 212 | 1.6 | 9.7 | 0.00 | 0.00 | 0.00 | 52 | 1010.9 |
| 20260503211003 | 17 | 210 | 1.6 | 9.7 | 0.00 | 0.00 | 0.00 | 52 | 1010.9 |
| 20260503210718 | 17 | 213 | 1.6 | 8.0 | 0.00 | 0.00 | 0.00 | 52 | 1011.1 |
| 20260503210004 | 17 | 223 | 3.2 | 11.3 | 0.00 | 0.00 | 0.00 | 51 | 1011.2 |
| 20260503205503 | 17 | 217 | 3.2 | 11.3 | 0.00 | 0.00 | 0.00 | 52 | 1011.4 |
| 20260503205003 | 17 | 227 | 3.2 | 9.7 | 0.00 | 0.00 | 0.00 | 51 | 1011.7 |
| 20260503204503 | 17 | 236 | 3.2 | 14.5 | 0.00 | 0.00 | 0.00 | 51 | 1011.6 |
| 20260503204003 | 17 | 215 | 1.6 | 14.5 | 0.00 | 0.00 | 0.00 | 51 | 1011.5 |
| 20260503203717 | 17 | 197 | 3.2 | 14.5 | 0.00 | 0.00 | 0.00 | 51 | 1011.8 |
| 20260503203003 | 17 | 133 | 3.2 | 22.5 | 0.00 | 0.00 | 0.00 | 51 | 1011.1 |
| 20260503202717 | 17 | 118 | 3.2 | 22.5 | 0.00 | 0.00 | 0.00 | 50 | 1011.1 |
| 20260503202003 | 17 | 117 | 1.6 | 8.0 | 0.00 | 0.00 | 0.00 | 53 | 1011.7 |
| 20260503201503 | 17 | 153 | 1.6 | 6.4 | 0.00 | 0.00 | 0.00 | 53 | 1012.1 |
| 20260503201003 | 17 | 208 | 1.6 | 8.0 | 0.00 | 0.00 | 0.00 | 51 | 1012.4 |
| 20260503200503 | 17 | 221 | 3.2 | 9.7 | 0.00 | 0.00 | 0.00 | 50 | 1013.0 |
| 20260503200004 | 17 | 203 | 3.2 | 9.7 | 0.00 | 0.00 | 0.00 | 51 | 1012.9 |
| 20260503195717 | 17 | 207 | 3.2 | 9.7 | 0.00 | 0.00 | 0.00 | 52 | 1013.0 |
| 20260503195003 | 17 | 240 | 3.2 | 12.9 | 0.00 | 0.00 | 0.00 | 51 | 1013.2 |
| 20260503194504 | 17 | 241 | 3.2 | 12.9 | 0.00 | 0.00 | 0.00 | 49 | 1013.3 |
| 20260503194218 | 17 | 244 | 3.2 | 12.9 | 0.00 | 0.00 | 0.00 | 50 | 1013.4 |
| 20260503193503 | 17 | 242 | 3.2 | 12.9 | 0.00 | 0.00 | 0.00 | 49 | 1013.5 |
| 20260503193003 | 17 | 247 | 3.2 | 12.9 | 0.00 | 0.00 | 0.00 | 49 | 1013.5 |
| 20260503192503 | 17 | 247 | 3.2 | 9.7 | 0.00 | 0.00 | 0.00 | 47 | 1013.5 |
| 20260503192004 | 17 | 247 | 3.2 | 11.3 | 0.00 | 0.00 | 0.00 | 47 | 1013.5 |
| 20260503191503 | 18 | 245 | 4.8 | 19.3 | 0.00 | 0.00 | 0.00 | 45 | 1013.3 |
| 20260503191003 | 18 | 243 | 4.8 | 19.3 | 0.00 | 0.00 | 0.00 | 45 | 1013.6 |
| 20260503190503 | 18 | 245 | 3.2 | 12.9 | 0.00 | 0.00 | 0.00 | 47 | 1013.4 |
| 20260503190003 | 18 | 245 | 4.8 | 12.9 | 0.00 | 0.00 | 0.00 | 46 | 1013.5 |
| 20260503185717 | 18 | 249 | 4.8 | 12.9 | 0.00 | 0.00 | 0.00 | 45 | 1013.6 |
| 20260503185003 | 18 | 185 | 3.2 | 11.3 | 0.00 | 0.00 | 0.00 | 47 | 1013.7 |
| 20260503184717 | 18 | 224 | 3.2 | 14.5 | 0.00 | 0.00 | 0.00 | 46 | 1013.7 |
| 20260503184003 | 18 | 245 | 3.2 | 14.5 | 0.00 | 0.00 | 0.00 | 45 | 1014.1 |
| 20260503174718 | 17 | 244 | 3.2 | 12.9 | 0.00 | 0.00 | 0.00 | 51 | 1015.2 |
| 20260503174003 | 17 | 239 | 3.2 | 16.1 | 0.00 | 0.00 | 0.00 | 51 | 1015.4 |
| 20260503173503 | 17 | 231 | 3.2 | 16.1 | 0.00 | 0.00 | 0.00 | 50 | 1015.7 |
| 20260503173003 | 17 | 205 | 3.2 | 12.9 | 0.00 | 0.00 | 0.00 | 50 | 1015.8 |
| 20260503172504 | 17 | 173 | 3.2 | 11.3 | 0.00 | 0.00 | 0.00 | 52 | 1015.8 |
| 20260503172003 | 17 | 181 | 3.2 | 11.3 | 0.00 | 0.00 | 0.00 | 51 | 1015.9 |
| 20260503171503 | 17 | 194 | 1.6 | 6.4 | 0.00 | 0.00 | 0.00 | 52 | 1015.9 |
| 20260503171003 | 17 | 211 | 3.2 | 11.3 | 0.00 | 0.00 | 0.00 | 52 | 1016.1 |
| 20260503170718 | 17 | 199 | 1.6 | 11.3 | 0.00 | 0.00 | 0.00 | 54 | 1016.0 |
| 20260503151003 | 13 | 247 | 3.2 | 14.5 | 0.00 | 0.00 | 0.00 | 58 | 1017.7 |
| 20260503150503 | 14 | 242 | 1.6 | 9.7 | 0.00 | 0.00 | 0.00 | 61 | 1017.8 |
| 20260503140218 | 12 | 214 | 0.0 | 8.0 | 0.00 | 0.00 | 0.00 | 71 | 1018.1 |
| 20260503131003 | 10 | 235 | 0.0 | 6.4 | 0.00 | 0.00 | 0.00 | 74 | 1017.9 |
| 20260503130503 | 9 | 202 | 1.6 | 6.4 | 0.00 | 0.00 | 0.00 | 74 | 1017.9 |
| 20260503110503 | 3 | 0 | 0.0 | 0.0 | 0.00 | 0.00 | 0.00 | 90 | 1017.7 |
| 20260503090503 | 2 | 0 | 0.0 | 0.0 | 0.00 | 0.00 | 0.00 | 90 | 1017.6 |
| 20260503081503 | 3 | 0 | 0.0 | 0.0 | 0.00 | 0.00 | 0.00 | 90 | 1017.6 |
| 20260503081003 | 3 | 0 | 0.0 | 0.0 | 0.00 | 0.00 | 0.00 | 90 | 1017.6 |
| 20260503080503 | 3 | 0 | 0.0 | 0.0 | 0.00 | 0.00 | 0.00 | 90 | 1017.6 |
| 20260503072718 | 3 | 0 | 0.0 | 0.0 | 0.00 | 0.00 | 0.00 | 89 | 1017.5 |
| 20260503072003 | 3 | 0 | 0.0 | 0.0 | 0.00 | 0.00 | 0.00 | 88 | 1017.5 |
| 20260503071503 | 3 | 0 | 0.0 | 0.0 | 0.00 | 0.00 | 0.00 | 88 | 1017.6 |
| 20260503071003 | 3 | 0 | 0.0 | 0.0 | 0.00 | 0.00 | 0.00 | 88 | 1017.6 |
| 20260503070503 | 3 | 0 | 0.0 | 0.0 | 0.00 | 0.00 | 0.00 | 88 | 1017.7 |
| 20260503055003 | 4 | 0 | 0.0 | 0.0 | 0.00 | 0.00 | 0.00 | 86 | 1018.0 |
| 20260503054503 | 4 | 0 | 0.0 | 0.0 | 0.00 | 0.00 | 0.00 | 86 | 1018.0 |
| 20260503054003 | 4 | 0 | 0.0 | 0.0 | 0.00 | 0.00 | 0.00 | 86 | 1018.0 |
| 20260503053718 | 4 | 0 | 0.0 | 0.0 | 0.00 | 0.00 | 0.00 | 86 | 1018.1 |
| 20260503053003 | 4 | 0 | 0.0 | 0.0 | 0.00 | 0.00 | 0.00 | 86 | 1018.0 |
| 20260503052718 | 4 | 0 | 0.0 | 0.0 | 0.00 | 0.00 | 0.00 | 85 | 1018.0 |
| 20260503052217 | 4 | 0 | 0.0 | 0.0 | 0.00 | 0.00 | 0.00 | 85 | 1018.0 |
| 20260503051503 | 4 | 0 | 0.0 | 0.0 | 0.00 | 0.00 | 0.00 | 85 | 1017.9 |
| 20260503051217 | 4 | 0 | 0.0 | 0.0 | 0.00 | 0.00 | 0.00 | 85 | 1017.9 |
| 20260503050718 | 5 | 0 | 0.0 | 0.0 | 0.00 | 0.00 | 0.00 | 84 | 1017.9 |
| 20260503050217 | 5 | 0 | 0.0 | 0.0 | 0.00 | 0.00 | 0.00 | 84 | 1018.0 |
| 20260503045503 | 5 | 0 | 0.0 | 0.0 | 0.00 | 0.00 | 0.00 | 83 | 1017.9 |
| 20260503045003 | 5 | 0 | 0.0 | 0.0 | 0.00 | 0.00 | 0.00 | 83 | 1018.0 |
| 20260503044503 | 5 | 0 | 0.0 | 0.0 | 0.00 | 0.00 | 0.00 | 83 | 1017.9 |
| 20260503044003 | 5 | 0 | 0.0 | 0.0 | 0.00 | 0.00 | 0.00 | 83 | 1018.0 |
| 20260503043503 | 5 | 0 | 0.0 | 0.0 | 0.00 | 0.00 | 0.00 | 82 | 1018.0 |
| 20260503043223 | 5 | 0 | 0.0 | 0.0 | 0.00 | 0.00 | 0.00 | 81 | 1018.0 |
| 20260503042503 | 5 | 0 | 0.0 | 0.0 | 0.00 | 0.00 | 0.00 | 80 | 1018.0 |
| 20260503042218 | 5 | 0 | 0.0 | 0.0 | 0.00 | 0.00 | 0.00 | 81 | 1018.0 |
| 20260503041503 | 5 | 0 | 0.0 | 0.0 | 0.00 | 0.00 | 0.00 | 80 | 1018.0 |
| 20260503041003 | 5 | 0 | 0.0 | 0.0 | 0.00 | 0.00 | 0.00 | 80 | 1018.0 |
| 20260503040503 | 5 | 0 | 0.0 | 0.0 | 0.00 | 0.00 | 0.00 | 80 | 1018.0 |
| 20260503040220 | 5 | 0 | 0.0 | 0.0 | 0.00 | 0.00 | 0.00 | 80 | 1018.1 |
| 20260503035717 | 5 | 0 | 0.0 | 0.0 | 0.00 | 0.00 | 0.00 | 79 | 1018.1 |
| 20260503035003 | 5 | 0 | 0.0 | 0.0 | 0.00 | 0.00 | 0.00 | 78 | 1018.1 |
| 20260503034503 | 5 | 0 | 0.0 | 0.0 | 0.00 | 0.00 | 0.00 | 77 | 1018.1 |
| 20260503034003 | 6 | 0 | 0.0 | 0.0 | 0.00 | 0.00 | 0.00 | 76 | 1018.0 |
| 20260503033503 | 6 | 0 | 0.0 | 0.0 | 0.00 | 0.00 | 0.00 | 75 | 1018.0 |
| 20260503033219 | 6 | 0 | 0.0 | 0.0 | 0.00 | 0.00 | 0.00 | 75 | 1018.0 |
| 20260503032503 | 6 | 0 | 0.0 | 0.0 | 0.00 | 0.00 | 0.00 | 74 | 1018.0 |
| 20260503032003 | 6 | 0 | 0.0 | 0.0 | 0.00 | 0.00 | 0.00 | 74 | 1017.9 |
| 20260503031503 | 6 | 0 | 0.0 | 0.0 | 0.00 | 0.00 | 0.00 | 74 | 1017.9 |
| 20260503031003 | 6 | 0 | 0.0 | 0.0 | 0.00 | 0.00 | 0.00 | 74 | 1017.9 |
| 20260503030503 | 6 | 0 | 0.0 | 0.0 | 0.00 | 0.00 | 0.00 | 74 | 1017.9 |
| 20260503030218 | 6 | 0 | 0.0 | 0.0 | 0.00 | 0.00 | 0.00 | 72 | 1018.0 |
| 20260503025503 | 7 | 0 | 0.0 | 0.0 | 0.00 | 0.00 | 0.00 | 71 | 1017.9 |
| 20260503025003 | 7 | 0 | 0.0 | 0.0 | 0.00 | 0.00 | 0.00 | 71 | 1017.9 |
| 20260503024717 | 7 | 0 | 0.0 | 0.0 | 0.00 | 0.00 | 0.00 | 70 | 1017.9 |
| 20260503024003 | 7 | 0 | 0.0 | 0.0 | 0.00 | 0.00 | 0.00 | 69 | 1017.9 |
| 20260503023503 | 7 | 0 | 0.0 | 0.0 | 0.00 | 0.00 | 0.00 | 69 | 1017.9 |
| 20260503023003 | 7 | 0 | 0.0 | 0.0 | 0.00 | 0.00 | 0.00 | 68 | 1017.9 |
| 20260503022503 | 7 | 0 | 0.0 | 0.0 | 0.00 | 0.00 | 0.00 | 67 | 1017.9 |
| 20260503022003 | 8 | 0 | 0.0 | 0.0 | 0.00 | 0.00 | 0.00 | 67 | 1017.8 |
| 20260503021503 | 8 | 0 | 0.0 | 0.0 | 0.00 | 0.00 | 0.00 | 66 | 1017.8 |
| 20260503021003 | 8 | 0 | 0.0 | 0.0 | 0.00 | 0.00 | 0.00 | 65 | 1017.8 |
| 20260503020503 | 8 | 0 | 0.0 | 0.0 | 0.00 | 0.00 | 0.00 | 64 | 1017.9 |
| 20260503020218 | 8 | 0 | 0.0 | 0.0 | 0.00 | 0.00 | 0.00 | 63 | 1017.8 |
| 20260503015503 | 9 | 0 | 0.0 | 0.0 | 0.00 | 0.00 | 0.00 | 61 | 1017.7 |
| 20260503015003 | 9 | 0 | 0.0 | 0.0 | 0.00 | 0.00 | 0.00 | 60 | 1017.6 |
| 20260503014503 | 10 | 0 | 0.0 | 0.0 | 0.00 | 0.00 | 0.00 | 59 | 1017.6 |
| 20260503014003 | 10 | 0 | 0.0 | 0.0 | 0.00 | 0.00 | 0.00 | 58 | 1017.6 |